Wind_Speed
14 14 13 14 19 20 14 12 11 11 11 10 9 8 8 8 7 5 4 3 1 0 1 2 3 4 4 5 5 5 6 6 7 7 7 6 6 6 6 5 6 6 6 6 5 5 5 5 5
14 12 12 15 20 16 11 12 12 13 12 11 10 9 9 8 7 6 5 4 2 1 1 2 3 4 4 4 4 5 6 6 6 6 7 6 5 5 5 6 6 6 6 6 5 5 5 5 5
13 11 12 16 18 12 10 11 12 13 12 11 10 10 10 9 8 6 6 5 3 1 2 3 4 5 5 5 5 6 6 6 7 7 7 6 6 6 5 5 5 6 6 6 5 5 5 5 5
11 11 13 16 14 10 10 11 11 11 12 11 11 10 10 9 8 7 6 5 3 2 2 3 4 5 6 6 6 7 7 7 7 7 7 6 6 6 5 5 5 6 6 6 6 5 5 5 5
9 9 11 14 10 7 9 10 10 10 11 11 12 12 10 10 9 8 7 6 4 3 2 3 4 5 6 6 7 7 7 8 8 7 7 6 6 6 6 6 5 5 6 5 5 5 5 5 5
7 9 10 10 8 6 9 9 10 10 9 10 11 12 11 12 11 10 9 7 5 3 2 3 4 6 7 7 8 8 7 8 8 7 7 6 6 6 6 6 5 5 5 5 5 5 5 5 5
6 8 9 6 5 5 7 8 8 10 10 11 12 12 12 12 12 12 11 9 7 6 5 4 5 6 7 8 8 9 8 9 9 8 7 7 6 6 6 5 5 5 5 5 5 5 5 5 5
5 7 7 4 4 5 7 8 9 9 10 11 12 14 14 13 13 12 12 11 9 8 7 5 5 6 8 8 9 10 10 10 10 9 8 8 7 7 6 6 5 5 6 6 5 5 5 5 4
5 6 4 3 1 6 8 8 9 10 10 8 10 13 15 14 14 13 13 12 10 9 8 6 5 6 8 9 9 11 11 11 11 10 10 9 8 8 7 6 6 5 6 6 5 5 4 4 4
3 4 2 1 3 8 9 8 8 11 13 13 12 13 15 16 15 14 14 13 12 10 9 8 6 6 8 9 10 11 12 11 12 12 11 10 9 9 8 7 6 5 6 6 5 5 4 4 4
2 0 3 4 7 9 8 8 9 12 15 15 16 14 15 16 16 16 15 14 13 12 10 9 7 7 7 9 10 10 11 12 12 13 12 11 11 9 8 6 7 6 6 6 5 5 4 4 4
2 3 5 6 8 8 8 8 9 11 13 15 17 15 15 16 16 16 15 14 13 12 12 10 9 7 7 8 9 10 12 13 12 12 13 12 11 10 8 7 7 6 6 5 5 5 4 4 4
3 5 6 7 8 8 9 9 9 11 12 14 15 15 16 16 17 16 14 13 13 13 13 12 11 10 8 8 10 11 12 13 13 13 13 13 12 10 8 7 7 7 6 6 6 5 5 4 4
4 6 6 6 8 8 9 10 11 12 13 14 15 15 16 16 16 15 14 13 13 14 13 13 12 10 9 9 9 10 11 12 12 12 13 13 12 11 9 8 7 7 7 6 5 5 4 4 4
5 6 5 7 9 8 9 10 11 13 14 14 14 15 16 16 15 15 14 14 14 14 13 14 13 10 10 9 10 10 10 11 11 11 12 13 12 11 10 9 8 7 7 6 5 5 4 4 4
6 6 7 8 10 10 10 10 12 14 14 15 15 14 15 15 15 15 14 14 14 14 13 14 13 12 11 10 9 9 10 11 12 11 11 12 12 12 11 10 9 8 7 6 6 5 4 4 4
6 8 9 9 12 12 11 11 13 14 15 17 18 15 14 15 16 16 14 14 14 14 14 14 14 13 12 10 8 8 10 10 11 11 12 13 13 13 12 11 10 9 8 7 6 5 5 4 5
5 7 8 10 14 14 12 12 13 14 15 17 19 18 16 16 16 16 16 15 15 15 14 14 14 13 13 11 9 8 9 10 11 11 13 14 14 14 13 12 11 10 10 8 7 6 5 5 6
10 10 11 11 14 15 14 12 13 15 16 18 19 19 18 16 16 16 16 15 15 15 14 13 13 13 12 11 9 9 9 10 11 11 12 13 13 14 13 13 12 11 11 10 9 8 7 7 6
13 13 12 12 15 16 15 13 12 15 17 18 19 19 18 17 15 16 15 14 14 14 14 13 12 12 11 9 8 8 9 10 11 11 11 12 13 14 14 13 13 12 12 11 10 9 8 8 7
15 15 14 13 15 15 14 14 14 16 17 17 17 18 19 18 17 15 14 13 13 13 14 13 11 12 11 9 8 9 8 9 10 11 12 13 14 15 15 14 14 13 12 12 11 10 10 9 8
17 15 16 15 16 14 13 14 15 17 18 17 18 18 18 18 17 15 14 13 13 13 13 12 11 11 10 9 9 9 9 9 9 10 11 14 15 16 16 15 15 14 14 13 12 12 11 11 10
18 16 16 16 16 14 12 13 15 16 18 17 18 18 18 18 16 15 14 13 13 13 13 12 11 11 10 10 9 9 9 9 10 10 12 13 15 15 16 16 16 16 15 14 14 14 13 12 12
18 18 17 16 14 14 12 12 13 17 17 18 19 18 17 17 16 14 12 12 12 12 12 11 10 10 10 9 9 9 9 9 10 11 12 13 14 15 15 16 16 17 17 16 16 15 15 14 13
19 18 16 14 14 13 10 11 13 18 19 19 20 20 18 16 15 13 12 11 11 11 11 10 9 10 9 9 9 9 9 10 11 12 13 14 15 15 16 16 16 17 18 18 17 16 16 15 15
19 18 16 12 11 13 11 12 15 16 18 18 18 18 16 14 13 13 11 10 10 10 10 9 10 9 9 9 9 10 10 10 11 12 13 14 15 16 17 17 16 17 18 19 19 18 18 17 16
20 19 16 16 15 14 13 14 16 17 18 17 16 15 14 13 12 11 10 10 9 9 9 9 9 9 8 8 9 9 10 11 12 13 14 14 15 16 17 18 17 18 20 20 20 20 20 19 18
20 18 17 19 18 16 15 15 17 18 17 16 15 15 14 13 12 10 9 9 9 8 9 8 8 7 6 7 8 9 10 10 12 12 13 14 14 15 16 17 18 19 20 21 21 21 21 21 21
19 20 20 18 18 15 15 18 19 16 16 16 16 16 14 12 12 11 9 9 9 9 9 9 8 7 7 7 8 9 10 10 10 12 13 14 15 15 16 17 18 19 21 21 22 22 23 23 22
19 19 20 21 19 18 17 19 19 16 15 17 16 15 15 13 13 12 11 10 9 9 9 8 7 7 7 8 8 9 9 10 10 11 12 14 16 17 18 18 19 19 20 22 22 22 23 23 23
Wind_Direction
79 77 77 73 67 63 49 32 22 23 23 25 23 18 22 18 16 12 8 14 13 287 211 190 177 179 185 192 199 209 213 213 210 202 193 185 175 163 154 149 144 140 137 132 130 130 127 119 113
84 80 74 68 65 58 35 19 19 20 19 19 17 12 13 15 16 18 19 19 0 287 238 221 209 199 193 200 208 211 219 217 209 203 196 191 185 174 160 152 147 145 144 138 133 131 128 126 120
89 86 77 64 57 47 20 12 14 15 17 17 15 10 6 7 9 12 17 22 12 304 255 239 226 218 212 210 216 216 218 218 214 210 204 198 189 179 167 159 154 150 147 142 138 135 133 131 129
97 93 83 71 58 28 12 5 10 10 7 9 12 7 5 4 3 4 5 9 7 327 261 242 232 226 224 219 219 220 223 221 221 219 211 196 186 178 171 166 158 153 148 143 140 136 135 132 131
104 83 68 76 69 26 4 1 5 0 360 3 6 2 1 6 1 359 358 360 355 336 290 255 243 235 230 224 221 228 225 222 224 224 215 201 189 179 172 168 161 154 149 145 140 137 137 136 137
107 86 58 59 71 18 351 354 351 352 354 1 359 355 3 7 2 358 356 356 353 332 318 280 257 244 235 228 225 226 229 226 224 225 219 207 195 186 180 176 167 159 154 151 147 142 142 143 143
97 86 76 46 37 12 341 339 338 345 348 355 347 342 357 1 0 358 355 352 350 331 316 289 266 249 238 231 226 225 230 228 225 225 225 217 209 200 191 184 178 171 165 157 151 147 147 149 148
103 94 87 64 358 326 319 326 326 335 340 342 340 339 354 358 355 352 351 350 349 337 332 300 272 252 240 235 229 226 228 228 226 226 228 225 217 211 202 194 187 178 172 166 160 156 155 155 154
111 103 98 109 311 294 299 313 317 320 314 317 332 340 349 350 347 344 345 345 342 336 332 326 285 264 245 237 233 228 228 228 229 227 227 227 226 222 214 210 196 186 179 172 169 165 163 160 158
122 105 79 7 276 281 291 304 316 309 308 314 325 334 339 340 338 338 336 339 338 333 329 323 306 282 255 237 234 229 229 229 231 229 227 228 230 229 222 213 201 194 184 175 173 172 173 168 165
171 276 311 288 271 277 283 299 305 303 306 314 319 325 330 334 333 332 332 332 332 332 330 320 314 291 266 242 238 239 232 229 230 230 229 230 231 230 224 215 203 198 191 181 179 178 181 182 181
244 248 264 275 277 284 290 288 289 294 304 311 313 319 329 330 330 330 328 327 327 329 328 321 319 302 278 255 249 246 234 228 228 230 230 231 232 229 222 217 211 204 196 192 191 186 183 187 187
272 273 275 279 283 288 297 298 299 298 304 305 309 317 327 332 332 330 328 323 322 324 326 325 315 306 288 265 254 250 235 229 226 227 229 231 231 227 220 219 216 211 206 203 199 192 189 185 185
273 279 282 291 293 296 300 301 295 293 298 304 308 314 323 330 329 330 326 322 317 319 324 326 321 310 292 276 271 255 236 228 226 224 228 229 226 224 222 223 227 219 212 208 203 198 195 193 189
288 291 304 318 305 298 294 297 298 299 298 300 304 311 319 323 326 325 326 325 320 321 323 327 326 317 298 290 277 256 235 227 226 227 228 226 224 223 224 225 225 218 212 209 206 208 205 202 196
290 307 324 312 299 300 301 299 296 303 300 300 301 306 314 318 319 320 322 321 319 320 325 327 324 318 307 298 282 258 243 234 226 227 228 221 220 221 224 225 225 222 215 214 217 216 215 211 208
300 317 319 304 293 295 292 291 295 299 299 301 302 301 309 314 316 318 316 315 318 318 319 321 320 318 314 307 283 262 246 240 231 229 226 220 220 223 223 225 227 223 221 222 223 223 221 217 214
284 284 284 278 283 289 287 287 291 292 293 298 303 305 309 310 312 314 313 310 311 312 312 313 315 315 312 307 287 267 246 235 232 229 224 220 221 225 225 225 224 221 223 227 227 228 227 223 219
253 250 251 258 268 280 286 286 289 290 294 299 300 303 306 308 310 312 310 306 306 308 308 309 310 311 310 303 293 269 249 235 230 226 220 219 219 219 222 221 220 221 224 227 229 231 231 230 227
258 260 260 263 270 278 285 289 290 289 291 294 298 301 303 305 307 310 307 306 307 308 308 308 306 307 308 300 289 276 256 240 231 222 225 221 216 216 218 221 223 223 226 229 230 231 234 234 232
260 264 264 263 268 281 290 293 300 293 291 296 303 305 305 304 305 307 305 306 307 306 309 307 303 304 303 294 285 275 262 243 235 231 234 226 222 219 219 222 225 226 229 232 230 234 235 236 236
263 266 269 268 268 272 277 285 291 290 293 300 306 306 304 304 307 309 305 302 303 305 308 306 299 298 296 288 279 269 262 246 240 236 232 227 223 221 223 224 228 229 231 232 232 235 237 240 242
260 259 265 269 271 271 268 273 282 286 289 296 300 301 304 300 305 306 303 300 302 305 307 304 298 292 288 284 277 272 263 250 242 236 232 227 221 220 225 227 231 233 233 234 234 237 240 244 246
259 260 264 268 273 274 273 268 273 277 279 285 293 296 299 303 305 305 302 302 302 304 306 302 293 288 285 280 272 269 259 246 240 239 232 226 224 225 228 230 234 235 236 237 236 239 242 246 247
258 259 260 267 278 282 280 270 260 271 280 286 290 294 298 301 303 304 300 301 303 303 304 299 295 287 282 275 268 264 257 247 242 240 233 231 229 229 231 233 236 236 238 240 241 241 244 246 246
253 252 250 249 270 287 278 258 257 274 287 292 292 293 295 298 303 307 301 297 301 304 305 302 299 294 285 273 266 264 259 249 244 241 237 235 234 234 234 237 241 240 240 242 243 244 247 246 247
244 247 243 240 243 264 272 264 268 281 290 298 297 293 291 294 302 305 300 299 302 305 307 304 301 295 286 273 265 265 264 252 245 245 244 243 240 240 239 240 244 243 242 242 243 244 246 248 249
240 238 236 233 237 248 261 267 264 268 278 295 301 295 295 297 300 299 300 305 306 306 309 306 301 295 289 279 271 269 266 258 252 252 249 247 245 243 243 244 246 244 242 242 245 247 248 249 251
242 232 230 235 236 240 257 263 261 256 270 289 297 295 294 293 292 296 298 302 306 311 315 311 307 296 286 282 278 275 270 264 259 255 252 250 248 245 245 247 250 250 246 244 245 248 249 251 252
242 239 231 231 234 229 244 267 272 273 277 284 289 293 293 290 290 294 294 298 303 307 312 315 313 303 289 284 281 278 273 269 264 258 256 256 252 249 251 252 252 252 249 247 248 251 252 254 256
Height
5893 5892 5892 5892 5889 5890 5892 5893 5891 5890 5889 5888 5886 5884 5883 5883 5882 5883 5880 5878 5879 5879 5880 5880 5881 5882 5883 5884 5885 5885 5886 5886 5886 5887 5887 5887 5887 5887 5887 5887 5888 5888 5889 5889 5889 5890 5890 5891 5891
5895 5895 5894 5891 5890 5893 5896 5895 5893 5892 5891 5889 5888 5886 5885 5883 5882 5881 5880 5879 5880 5880 5880 5881 5881 5882 5883 5884 5885 5885 5886 5886 5887 5887 5887 5888 5888 5888 5888 5888 5888 5889 5889 5890 5890 5891 5891 5891 5892
5896 5896 5895 5893 5893 5897 5898 5896 5895 5894 5892 5891 5889 5888 5886 5885 5884 5882 5881 5881 5880 5880 5880 5881 5881 5882 5883 5884 5885 5885 5886 5887 5887 5887 5887 5888 5888 5888 5889 5889 5889 5889 5890 5890 5891 5891 5892 5892 5893
5898 5898 5896 5895 5898 5900 5899 5898 5897 5895 5893 5891 5890 5889 5887 5886 5885 5883 5882 5881 5881 5880 5880 5880 5881 5882 5883 5884 5885 5885 5886 5887 5887 5887 5888 5888 5888 5888 5889 5889 5890 5890 5891 5891 5892 5892 5893 5893 5894
5899 5898 5896 5897 5900 5902 5902 5900 5898 5896 5894 5892 5890 5890 5888 5887 5886 5884 5883 5882 5881 5880 5880 5880 5881 5882 5882 5883 5884 5885 5886 5887 5887 5888 5888 5888 5888 5889 5889 5890 5890 5891 5891 5892 5892 5893 5893 5894 5894
5900 5898 5898 5899 5902 5904 5903 5901 5899 5897 5895 5894 5892 5891 5888 5888 5887 5885 5883 5882 5881 5879 5880 5880 5880 5881 5882 5883 5884 5885 5885 5886 5887 5887 5888 5888 5889 5889 5890 5890 5891 5891 5892 5892 5893 5893 5894 5894 5895
5901 5899 5900 5902 5904 5904 5905 5903 5900 5898 5896 5894 5893 5890 5889 5888 5887 5886 5883 5882 5881 5880 5880 5879 5880 5880 5881 5882 5882 5884 5885 5886 5886 5887 5888 5889 5889 5890 5890 5891 5891 5892 5892 5893 5893 5894 5894 5895 5895
5901 5902 5901 5904 5906 5906 5905 5903 5901 5899 5898 5896 5894 5891 5889 5888 5887 5885 5884 5882 5881 5880 5879 5879 5879 5879 5880 5880 5881 5882 5884 5885 5886 5887 5888 5889 5889 5890 5890 5891 5891 5892 5893 5893 5894 5894 5895 5895 5896
5902 5903 5903 5903 5906 5906 5905 5904 5902 5899 5897 5895 5893 5891 5890 5888 5887 5885 5883 5882 5881 5880 5878 5878 5878 5878 5878 5879 5880 5881 5883 5884 5885 5886 5887 5888 5889 5890 5890 5891 5891 5892 5893 5893 5894 5895 5895 5896 5896
5903 5903 5904 5905 5906 5905 5904 5903 5901 5899 5895 5893 5891 5891 5889 5888 5886 5885 5883 5881 5880 5879 5878 5877 5876 5876 5877 5877 5878 5880 5881 5883 5884 5885 5886 5887 5888 5889 5890 5891 5891 5892 5893 5893 5894 5895 5896 5896 5897
5903 5903 5903 5904 5904 5904 5903 5902 5901 5898 5895 5892 5891 5890 5890 5888 5886 5884 5882 5880 5878 5878 5876 5875 5875 5875 5875 5876 5877 5878 5879 5881 5882 5884 5885 5886 5887 5889 5890 5891 5891 5892 5893 5894 5894 5895 5896 5897 5897
5902 5903 5903 5903 5903 5902 5902 5901 5900 5898 5896 5894 5890 5889 5888 5887 5884 5881 5880 5878 5877 5876 5875 5874 5873 5873 5873 5874 5875 5876 5877 5879 5880 5882 5884 5885 5886 5888 5889 5890 5891 5892 5893 5894 5895 5895 5896 5896 5897
5901 5902 5902 5902 5901 5901 5900 5899 5898 5897 5896 5893 5891 5889 5887 5885 5882 5879 5878 5877 5876 5875 5874 5873 5872 5872 5872 5872 5873 5874 5875 5877 5878 5880 5882 5884 5885 5887 5888 5890 5891 5892 5893 5894 5895 5895 5896 5897 5897
5899 5900 5900 5900 5900 5899 5899 5898 5897 5895 5894 5892 5890 5888 5886 5883 5880 5878 5877 5876 5875 5874 5872 5872 5871 5870 5870 5871 5872 5872 5873 5875 5877 5878 5880 5882 5884 5886 5887 5889 5890 5892 5893 5894 5895 5895 5896 5897 5897
5897 5898 5899 5898 5899 5898 5898 5897 5896 5893 5892 5890 5889 5887 5884 5882 5880 5878 5877 5876 5874 5872 5872 5871 5870 5869 5869 5869 5869 5870 5871 5873 5875 5877 5879 5881 5883 5884 5886 5888 5890 5891 5892 5893 5894 5895 5896 5897 5897
5896 5897 5897 5898 5897 5897 5898 5897 5894 5892 5890 5888 5886 5885 5883 5881 5880 5877 5876 5875 5874 5872 5871 5870 5869 5868 5867 5867 5867 5868 5870 5871 5873 5874 5877 5879 5881 5883 5885 5887 5889 5890 5892 5893 5894 5895 5896 5897 5897
5895 5896 5897 5898 5897 5896 5896 5895 5893 5891 5889 5886 5883 5881 5880 5879 5878 5877 5875 5874 5872 5871 5870 5869 5868 5866 5865 5865 5865 5866 5868 5870 5871 5873 5875 5877 5880 5882 5884 5886 5887 5889 5891 5892 5893 5895 5895 5896 5897
5894 5897 5898 5899 5897 5895 5894 5893 5891 5889 5887 5885 5881 5878 5877 5877 5876 5875 5873 5872 5871 5869 5868 5867 5866 5865 5864 5864 5864 5864 5866 5868 5870 5871 5873 5875 5878 5880 5882 5884 5886 5888 5890 5892 5893 5894 5895 5896 5896
5891 5893 5895 5896 5895 5893 5891 5890 5889 5887 5885 5883 5880 5878 5876 5875 5874 5872 5871 5869 5868 5867 5866 5865 5865 5864 5863 5862 5862 5863 5864 5866 5868 5870 5871 5873 5876 5878 5880 5883 5885 5887 5889 5890 5892 5893 5894 5895 5896
5889 5890 5891 5892 5892 5890 5889 5887 5887 5886 5883 5881 5878 5876 5874 5873 5872 5870 5868 5867 5866 5865 5864 5864 5863 5862 5861 5861 5861 5862 5862 5864 5866 5867 5869 5871 5874 5876 5879 5881 5883 5885 5887 5889 5890 5892 5893 5894 5895
5885 5887 5888 5888 5888 5887 5886 5885 5885 5883 5880 5878 5876 5874 5872 5870 5869 5868 5866 5864 5864 5863 5863 5862 5861 5861 5860 5859 5859 5860 5861 5862 5864 5865 5867 5870 5872 5874 5877 5879 5881 5883 5885 5887 5889 5890 5891 5892 5893
5881 5883 5884 5884 5884 5884 5885 5884 5883 5880 5878 5875 5874 5872 5870 5868 5867 5865 5864 5863 5862 5861 5861 5860 5859 5859 5858 5858 5858 5858 5859 5860 5862 5863 5865 5868 5870 5872 5875 5877 5879 5881 5883 5885 5887 5888 5890 5891 5892
5877 5879 5880 5880 5880 5880 5880 5881 5881 5877 5875 5873 5872 5869 5868 5865 5864 5863 5862 5861 5860 5860 5858 5857 5857 5856 5856 5856 5856 5857 5858 5859 5860 5862 5863 5865 5867 5870 5872 5874 5876 5879 5881 5882 5884 5886 5888 5889 5890
5873 5875 5875 5875 5876 5877 5877 5878 5878 5875 5873 5871 5869 5867 5865 5863 5862 5861 5860 5860 5859 5857 5856 5855 5855 5854 5854 5854 5855 5855 5856 5857 5858 5860 5861 5863 5865 5868 5870 5871 5874 5876 5878 5880 5882 5883 5885 5886 5887
5869 5871 5872 5872 5873 5874 5874 5875 5875 5872 5871 5869 5867 5865 5864 5862 5861 5859 5859 5858 5857 5856 5855 5853 5853 5852 5852 5852 5853 5853 5854 5855 5856 5858 5859 5861 5863 5865 5867 5869 5871 5873 5875 5877 5879 5880 5882 5883 5884
5864 5867 5869 5871 5873 5871 5871 5871 5871 5868 5867 5866 5865 5863 5861 5860 5859 5858 5857 5856 5855 5854 5853 5852 5851 5850 5850 5850 5850 5851 5852 5853 5854 5855 5857 5858 5860 5862 5864 5866 5868 5870 5871 5873 5875 5877 5879 5880 5881
5859 5861 5865 5867 5868 5869 5869 5868 5866 5865 5864 5863 5862 5861 5859 5858 5857 5856 5855 5854 5854 5853 5851 5850 5849 5848 5848 5848 5848 5849 5850 5850 5852 5853 5854 5855 5857 5859 5861 5863 5864 5866 5868 5870 5871 5873 5875 5876 5877
5855 5858 5860 5862 5864 5866 5867 5866 5863 5861 5860 5860 5860 5858 5858 5856 5855 5854 5854 5853 5853 5851 5850 5849 5848 5847 5847 5847 5847 5848 5848 5848 5849 5850 5851 5853 5854 5856 5858 5859 5861 5862 5864 5866 5867 5869 5870 5872 5873
5850 5853 5855 5859 5861 5863 5864 5863 5858 5857 5857 5857 5857 5856 5856 5855 5853 5853 5852 5852 5852 5851 5849 5848 5847 5846 5846 5846 5846 5846 5846 5846 5847 5848 5849 5850 5852 5853 5854 5855 5857 5858 5860 5861 5863 5864 5865 5867 5868
5846 5848 5851 5854 5856 5858 5860 5860 5855 5854 5854 5855 5854 5854 5854 5853 5852 5851 5851 5851 5850 5850 5848 5847 5846 5845 5845 5845 5845 5845 5845 5845 5845 5846 5847 5848 5849 5850 5851 5852 5853 5854 5855 5857 5858 5859 5860 5862 5863